Weather History for Boonville, MO

Change the Weather History Date:

Tuesday, February 4, 2014

  Actual Average Record
Temperature  
Mean Temperature 22 °F -  
Max Temperature 24 °F 37 °F 68 °F (1962)
Min Temperature 19 °F 18 °F -4 °F (1989)
Degree Days  
Heating Degree Days 44    
Moisture  
Dew Point 20 °F    
Average Humidity 90    
Maximum Humidity 96    
Minimum Humidity 81    
Precipitation  
Precipitation 0.09 in - - ()
Sea Level Pressure  
Sea Level Pressure 30.14 in    
Wind  
Wind Speed 8 mph (NE)    
Max Wind Speed 16 mph    
Max Gust Speed 21 mph    
Visibility 4 miles    
Events Snow    
Averages and records for this station are not official NWS values.
T = Trace of Precipitation, MM = Missing Value Source: NWS Daily Summary

Daily Weather History Graph

Daily Weather History Graph

Search for Another Location

Airport:

Trip Planner

Search our weather history database for the weather conditions in past years. The results will help you decide how hot, cold, wet, or windy it might be!

Date:

Astronomy

Feb. 04, 2014 Rise Set
Actual Time 7:14 AM CST 5:35 PM CST
Civil Twilight 6:46 AM CST 6:03 PM CST
Nautical Twilight 6:14 AM CST 6:35 PM CST
Astronomical Twilight 5:43 AM CST 7:06 PM CST
Moon 9:55 AM CST (2/4) 11:26 PM CST (2/4)
Length of Visible Light 11h 17m
Length of Day
10h 21m
Waxing Crescent, 29% of the Moon is Illuminated
Feb 4
Waxing Crescent
Feb 6
First Quarter
Feb 14
Full
Feb 22
Last Quarter
Mar 1
New

Hourly Weather History & Observations

Time (CST) Temp. Windchill Dew Point Humidity Pressure Visibility Wind Dir Wind Speed Gust Speed Precip Events Conditions
12:15 AM 21.7 °F 14.3 °F 16.9 °F 82% 30.26 in 10.0 mi East 5.8 mph - N/A   Clear
12:35 AM 21.6 °F 15.3 °F 16.7 °F 82% 30.27 in 10.0 mi East 4.6 mph - N/A   Clear
12:55 AM 21.7 °F 15.5 °F 16.9 °F 82% 30.27 in 10.0 mi East 4.6 mph - N/A   Mostly Cloudy
1:15 AM 22.3 °F 14.9 °F 17.4 °F 82% 30.27 in 10.0 mi East 5.8 mph - N/A   Overcast
1:35 AM 22.5 °F 15.1 °F 17.4 °F 81% 30.25 in 10.0 mi ENE 5.8 mph - N/A   Mostly Cloudy
1:55 AM 22.1 °F 14.7 °F 17.4 °F 82% 30.25 in 10.0 mi East 5.8 mph - N/A   Scattered Clouds
2:15 AM 22.3 °F 16.1 °F 17.6 °F 82% 30.25 in 10.0 mi ENE 4.6 mph - N/A   Clear
2:35 AM 22.5 °F 15.1 °F 17.8 °F 82% 30.25 in 10.0 mi East 5.8 mph - N/A   Scattered Clouds
2:55 AM 22.6 °F 16.5 °F 18.1 °F 83% 30.26 in 10.0 mi ENE 4.6 mph - N/A   Mostly Cloudy
3:15 AM 22.8 °F 15.5 °F 18.3 °F 83% 30.26 in 10.0 mi East 5.8 mph - N/A   Overcast
3:35 AM 23.0 °F 15.8 °F 18.5 °F 83% 30.26 in 10.0 mi East 5.8 mph - N/A   Overcast
3:55 AM 23.0 °F 13.9 °F 18.5 °F 83% 30.25 in 10.0 mi East 8.1 mph - N/A   Overcast
4:15 AM 23.2 °F 16.0 °F 18.5 °F 82% 30.25 in 10.0 mi ENE 5.8 mph - N/A   Overcast
4:35 AM 23.5 °F 15.4 °F 18.5 °F 81% 30.25 in 10.0 mi ENE 6.9 mph - N/A   Overcast
4:55 AM 23.4 °F 16.2 °F 18.9 °F 83% 30.25 in 10.0 mi ENE 5.8 mph - N/A   Overcast
5:15 AM 23.4 °F 15.2 °F 19.0 °F 84% 30.25 in 10.0 mi ENE 6.9 mph - N/A   Overcast
5:35 AM 23.5 °F 16.4 °F 19.2 °F 84% 30.27 in 10.0 mi East 5.8 mph - N/A   Overcast
5:55 AM 23.5 °F 19.1 °F 19.2 °F 84% 30.28 in 10.0 mi ESE 3.5 mph - N/A   Overcast
6:15 AM 23.7 °F 17.8 °F 19.4 °F 84% 30.28 in 10.0 mi East 4.6 mph - N/A   Overcast
6:35 AM 23.5 °F 16.4 °F 19.4 °F 84% 30.28 in 10.0 mi NE 5.8 mph - N/A   Overcast
6:55 AM 23.5 °F 14.5 °F 19.6 °F 85% 30.26 in 5.0 mi ENE 8.1 mph - N/A Snow Light Snow
7:15 AM 23.2 °F 13.3 °F 19.9 °F 87% 30.27 in 1.8 mi ENE 9.2 mph - N/A Snow Light Snow
7:35 AM 23.0 °F 13.1 °F 21.4 °F 94% 30.24 in 0.5 mi ENE 9.2 mph - N/A Snow Snow
7:55 AM 22.8 °F 13.6 °F 21.9 °F 96% 30.23 in 0.5 mi NE 8.1 mph - N/A Snow Light Snow
8:15 AM 23.0 °F 13.9 °F 22.1 °F 96% 30.23 in 0.5 mi ENE 8.1 mph - N/A Snow Light Snow
8:35 AM 23.0 °F 13.1 °F 22.1 °F 96% 30.22 in 1.8 mi NE 9.2 mph - 0.01 in Snow Light Snow
8:55 AM 23.2 °F 15.0 °F 22.1 °F 96% 30.23 in 1.2 mi East 6.9 mph - 0.01 in Snow Light Snow
9:15 AM 23.5 °F 14.5 °F 22.1 °F 94% 30.23 in 0.8 mi East 8.1 mph - 0.01 in Snow Light Snow
9:35 AM 23.5 °F 14.5 °F 22.1 °F 94% 30.23 in 0.5 mi ENE 8.1 mph - 0.01 in Snow Snow
9:55 AM 23.7 °F 12.6 °F 22.1 °F 94% 30.20 in 0.5 mi ENE 11.5 mph - 0.02 in Snow Snow
10:15 AM 24.1 °F 14.4 °F 22.6 °F 94% 30.19 in 0.5 mi ENE 9.2 mph - N/A Snow Light Snow
10:35 AM 23.9 °F 11.2 °F 21.9 °F 92% 30.20 in 1.0 mi ENE 15.0 mph 20.7 mph N/A Snow Light Snow
10:55 AM 23.5 °F 11.3 °F 21.2 °F 91% 30.17 in 1.0 mi ENE 13.8 mph 19.6 mph N/A Snow Light Snow
11:15 AM 23.4 °F 11.1 °F 21.4 °F 92% 30.17 in 0.2 mi ENE 13.8 mph 18.4 mph N/A Snow Snow
11:35 AM 23.5 °F 13.7 °F 21.9 °F 94% 30.16 in 0.5 mi ENE 9.2 mph - 0.01 in Snow Snow
11:55 AM 23.7 °F 13.3 °F 22.1 °F 94% 30.16 in 0.8 mi ENE 10.4 mph - 0.01 in Snow Light Snow
12:15 PM 23.7 °F 12.6 °F 22.3 °F 94% 30.15 in 0.2 mi ENE 11.5 mph 16.1 mph N/A Snow Snow
12:35 PM 23.9 °F 12.9 °F 22.3 °F 94% 30.11 in 0.5 mi NE 11.5 mph 18.4 mph 0.01 in Snow Snow
12:55 PM 23.9 °F 13.5 °F 22.5 °F 94% 30.09 in 0.2 mi NE 10.4 mph - 0.01 in Snow Snow
1:15 PM 23.9 °F 12.9 °F 22.6 °F 95% 30.07 in 0.2 mi NE 11.5 mph - 0.01 in Snow Snow
1:35 PM 24.3 °F 13.3 °F 22.8 °F 94% 30.05 in 0.5 mi NE 11.5 mph - 0.02 in Snow Light Snow
1:55 PM 23.9 °F 11.7 °F 22.5 °F 94% 30.04 in 0.5 mi NE 13.8 mph 18.4 mph 0.02 in Snow Light Snow
2:15 PM 23.9 °F 11.7 °F 22.1 °F 93% 30.02 in 0.5 mi NE 13.8 mph 18.4 mph N/A Snow Light Snow
2:35 PM 23.7 °F 12.6 °F 21.9 °F 93% 30.02 in 0.8 mi ENE 11.5 mph 18.4 mph N/A Snow Light Snow
2:55 PM 23.5 °F 11.3 °F 21.6 °F 92% 30.04 in 0.5 mi ENE 13.8 mph 18.4 mph 0.01 in Snow Light Snow
3:15 PM 23.4 °F 11.6 °F 21.7 °F 94% 30.02 in 0.8 mi NE 12.7 mph 17.3 mph N/A Snow Light Snow
3:35 PM 23.4 °F 11.6 °F 21.9 °F 94% 30.01 in 0.8 mi NE 12.7 mph - N/A Snow Light Snow
3:55 PM 23.4 °F 15.2 °F 21.9 °F 94% 30.03 in 1.2 mi NE 6.9 mph - N/A Snow Light Snow
4:15 PM 23.4 °F 13.5 °F 21.9 °F 94% 30.04 in 2.5 mi NE 9.2 mph - N/A Snow Light Snow
4:35 PM 23.2 °F 13.3 °F 21.9 °F 95% 30.04 in 0.8 mi NE 9.2 mph - N/A Snow Light Snow
4:55 PM 23.0 °F 12.4 °F 21.9 °F 96% 30.03 in 1.2 mi NE 10.4 mph - 0.01 in Snow Light Snow
5:15 PM 22.6 °F 11.9 °F 21.7 °F 96% 30.01 in 0.8 mi NE 10.4 mph - N/A Snow Light Snow
5:35 PM 22.1 °F 9.5 °F 21.2 °F 96% 30.00 in 1.5 mi NNE 13.8 mph 17.3 mph N/A Snow Light Snow
6:15 PM 22.1 °F 10.0 °F 20.5 °F 93% 30.00 in 7.0 mi NE 12.7 mph 18.4 mph N/A   Overcast
6:35 PM 22.1 °F 10.6 °F 20.3 °F 93% 30.01 in 4.0 mi NNE 11.5 mph 17.3 mph N/A Snow Light Snow
6:55 PM 22.1 °F 10.6 °F 20.5 °F 93% 30.00 in 2.5 mi NNE 11.5 mph 17.3 mph N/A Snow Light Snow
7:15 PM 21.7 °F 9.0 °F 20.3 °F 94% 30.01 in 4.0 mi NNE 13.8 mph 18.4 mph N/A Snow Light Snow
7:35 PM 21.6 °F 9.9 °F 19.6 °F 92% 30.03 in 7.0 mi NNE 11.5 mph 17.3 mph N/A   Overcast
7:55 PM 21.6 °F 10.6 °F 19.2 °F 91% 30.03 in 10.0 mi NNE 10.4 mph 18.4 mph N/A   Overcast
8:15 PM 21.4 °F 9.7 °F 19.2 °F 91% 30.03 in 5.0 mi NNE 11.5 mph - N/A Snow Light Snow
8:35 PM 21.2 °F 10.9 °F 19.2 °F 92% 30.03 in 5.0 mi North 9.2 mph - N/A Snow Light Snow
8:55 PM 20.5 °F 8.6 °F 18.7 °F 93% 30.04 in 4.0 mi North 11.5 mph 17.3 mph N/A Snow Light Snow
9:15 PM 19.8 °F 8.3 °F 17.8 °F 92% 30.06 in 5.0 mi North 10.4 mph - N/A Snow Light Snow
9:35 PM 19.4 °F 6.6 °F 17.4 °F 92% 30.06 in 4.0 mi NNE 12.7 mph - N/A Snow Light Snow
9:55 PM 19.2 °F 7.7 °F 17.4 °F 93% 30.07 in 2.0 mi North 10.4 mph - N/A Snow Light Snow
10:15 PM 19.2 °F 6.4 °F 17.6 °F 93% 30.05 in 1.2 mi North 12.7 mph - N/A Snow Light Snow
10:35 PM 19.0 °F 6.8 °F 17.6 °F 94% 30.05 in 1.0 mi North 11.5 mph - N/A Snow Light Snow
10:55 PM 19.2 °F 7.0 °F 18.0 °F 95% 30.05 in 2.0 mi North 11.5 mph - N/A Snow Light Snow
11:15 PM 19.0 °F 4.5 °F 17.6 °F 94% 30.05 in 4.0 mi North 16.1 mph - N/A Snow Light Snow
11:35 PM 19.0 °F 6.8 °F 16.9 °F 91% 30.05 in 4.0 mi North 11.5 mph 17.3 mph N/A Snow Light Snow
11:55 PM 19.0 °F 6.1 °F 16.5 °F 90% 30.05 in 2.5 mi North 12.7 mph - N/A Snow Light Snow